RH
13 14 16 20 24 29 26 23 28 28 31 52 47 38 29 46 78 70 96 72 63 53 62 60 62 63 67 67 66 66 66 64 59 50 46 34 26 24 26 23 23 24 25 23 22 22 22 23 24
18 17 20 25 28 25 25 30 31 32 47 62 57 52 37 51 86 79 88 76 75 62 67 63 67 69 70 70 69 69 70 67 55 50 43 31 25 26 29 25 27 27 28 27 24 25 27 28 28
17 19 25 40 33 27 28 37 34 37 63 53 52 43 44 45 61 69 63 73 82 72 69 66 71 74 74 75 72 72 74 63 53 47 38 30 32 32 32 30 29 30 30 28 28 29 32 32 31
20 23 25 23 28 33 30 38 48 55 49 42 46 75 56 68 56 60 71 72 76 81 79 74 75 81 79 77 73 73 64 62 52 41 36 38 39 37 33 32 33 35 34 30 34 34 36 35 35
22 26 31 30 26 29 40 51 49 58 45 67 54 50 52 58 61 75 86 78 85 83 87 79 78 81 78 77 74 67 66 61 49 40 39 42 43 41 37 35 36 37 35 36 41 38 40 40 41
26 29 33 32 35 36 43 56 58 60 59 72 52 63 61 80 80 82 85 82 85 93 97 95 89 88 86 76 70 69 65 59 50 42 43 44 45 42 38 38 38 40 42 45 41 43 44 46 49
24 35 34 30 27 35 51 54 55 59 59 72 60 69 73 72 72 78 85 80 85 87 82 93 90 97 91 86 81 71 61 57 50 49 46 53 50 46 42 45 45 46 50 48 45 48 49 55 52
22 27 32 32 32 42 52 43 54 56 70 51 59 72 80 71 69 75 80 77 85 85 87 82 89 98 98 96 84 73 65 60 51 50 50 54 51 49 51 52 52 51 48 51 49 53 58 57 56
22 31 36 38 32 47 42 43 57 49 57 62 60 62 67 67 66 72 78 74 75 82 90 89 94 98 91 89 87 71 65 57 55 54 57 59 55 57 56 53 48 50 52 56 52 57 61 60 55
24 37 41 36 36 36 36 39 57 47 60 57 65 60 60 64 70 75 82 87 86 85 90 94 96 98 93 92 90 89 72 66 63 62 64 62 66 62 50 49 49 50 56 50 57 66 63 62 56
40 36 38 39 39 40 38 46 57 55 55 61 58 66 62 70 71 81 82 82 89 93 91 91 96 95 96 93 85 77 75 72 69 71 69 73 64 59 54 51 54 49 54 64 67 67 65 65 57
32 44 42 39 38 40 46 54 51 54 61 53 56 53 58 66 77 82 84 83 87 88 88 94 93 93 97 96 84 80 79 79 81 80 74 67 67 63 52 49 50 58 67 70 72 67 61 55 46
37 48 40 37 34 36 41 50 48 61 58 57 53 52 61 69 70 75 82 83 81 83 86 90 95 93 96 92 85 89 91 90 84 72 72 72 67 62 57 56 57 64 69 75 73 61 57 48 38
52 41 45 38 39 43 42 55 47 74 56 55 54 55 60 62 68 77 84 92 90 82 87 92 93 96 93 93 93 90 87 81 74 68 67 68 64 58 61 59 65 69 75 76 67 56 54 41 37
36 36 68 63 56 55 37 46 54 63 48 59 60 57 67 61 70 84 84 87 86 94 97 94 97 96 96 94 90 83 76 69 70 66 62 61 59 53 59 62 68 76 82 69 60 57 51 41 36
36 47 47 56 48 49 39 75 82 58 50 59 65 66 70 62 63 85 89 93 99 96 97 97 93 92 88 85 66 60 65 67 63 62 59 54 54 67 68 70 78 85 73 64 60 54 50 39 37
45 40 46 45 52 50 48 53 64 56 56 59 61 74 63 66 66 69 72 69 71 79 89 86 83 84 84 74 65 60 59 59 60 60 56 54 68 73 69 76 89 79 72 60 56 53 48 37 38
44 43 41 38 53 49 51 54 59 56 59 58 52 62 61 58 64 68 67 60 57 57 61 78 85 80 74 63 49 41 40 43 45 51 65 70 76 76 84 88 78 69 59 54 53 50 42 38 40
38 41 43 47 47 42 54 53 52 51 54 49 52 58 53 47 51 50 57 57 54 52 54 55 73 62 59 43 36 38 43 55 65 74 74 72 74 76 77 83 67 60 57 55 50 49 38 39 45
36 45 47 47 43 39 49 46 44 44 43 46 47 43 41 43 43 41 45 50 47 48 50 51 52 62 56 55 54 56 57 58 63 61 62 70 69 71 75 75 64 61 58 57 52 47 42 47 52
44 47 51 46 47 44 42 44 44 36 44 48 50 42 37 36 43 44 44 51 52 55 53 56 57 61 62 62 62 56 57 58 63 66 59 65 71 75 82 79 70 69 66 58 55 47 48 54 59
46 47 41 41 42 63 42 50 45 43 36 42 43 42 40 40 42 41 43 46 49 53 56 54 60 60 62 61 65 60 60 62 69 69 64 67 75 80 83 80 80 74 73 66 59 57 59 62 66
43 43 39 40 42 44 44 34 45 38 37 45 40 47 47 41 45 43 41 38 40 44 46 49 54 56 58 59 60 58 59 65 71 73 74 71 74 80 88 92 90 84 79 74 69 67 67 71 75
42 42 42 42 45 51 46 37 43 45 36 43 46 43 48 53 51 48 49 51 50 45 45 46 50 57 62 66 72 72 70 70 77 81 78 78 76 82 92 90 91 95 88 87 80 72 76 79 83
41 47 56 53 54 49 45 35 34 41 36 34 36 45 44 48 54 53 53 54 54 53 49 50 53 57 67 69 69 77 80 77 78 81 81 81 85 84 88 91 93 95 95 92 80 80 79 79 90
40 46 57 58 56 49 38 30 37 33 28 29 31 35 40 43 48 51 56 58 54 57 53 55 58 62 68 70 76 78 77 78 81 93 80 77 77 82 86 89 87 96 97 93 86 87 84 89 96
47 45 48 56 50 48 41 38 34 29 27 29 27 31 39 42 45 47 54 59 59 57 58 57 61 64 64 68 71 72 70 70 74 74 66 68 74 84 89 91 90 99 97 91 87 92 91 97 97
42 49 50 45 54 59 41 38 37 38 36 29 30 30 32 36 44 48 48 50 55 60 60 59 62 60 61 65 66 65 63 58 63 62 66 75 81 87 93 97 96 98 93 92 96 97 98 97 98
36 44 47 49 53 57 51 40 44 37 35 35 37 33 34 37 39 41 45 47 50 53 56 57 60 63 65 65 64 65 59 59 63 66 76 76 77 87 93 97 98 93 92 96 98 99 98 96 98
48 43 46 52 50 49 50 48 46 41 39 37 34 35 36 35 37 39 37 38 41 43 51 53 55 60 65 68 67 61 65 66 70 75 72 71 78 85 88 96 96 93 97 99 98 97 98 94 87